EW0408 Weather Reports


Display with metric or nautical units.
time (UTC)temp
F
wind
direction
speed
MPH
gust
MPH
rain 1hr
in
rain 24hr
in
rain mn
in
humidity
%
barometer
mb
20260905144024 87 0 0.0 0.0 0.00 0.03 0.00 79 1015.4
20260905143003 88 0 0.0 0.0 0.00 0.03 0.00 77 1015.3
20260905142003 88 0 0.0 0.0 0.00 0.03 0.00 80 1015.2
20260905141003 87 0 0.0 0.0 0.00 0.03 0.00 79 1015.2
20260905140004 86 0 0.0 0.0 0.00 0.03 0.00 78 1015.2
20260905135003 86 0 0.0 0.0 0.00 0.03 0.00 79 1015.3
20260905134004 85 0 0.0 0.0 0.00 0.03 0.00 82 1015.5
20260905133004 83 0 0.0 0.0 0.00 0.03 0.00 83 1015.5
20260905132004 82 0 0.0 0.0 0.00 0.03 0.00 84 1015.5
20260905131003 82 0 0.0 0.0 0.00 0.03 0.00 84 1015.4
20260905130004 81 0 0.0 0.0 0.00 0.03 0.00 85 1015.2
20260905125003 81 0 0.0 0.0 0.00 0.03 0.00 86 1015.2
20260905124003 80 0 0.0 0.0 0.00 0.03 0.00 88 1015.3
20260905123003 79 0 0.0 0.0 0.00 0.03 0.00 90 1015.3
20260905122003 78 0 0.0 0.0 0.00 0.03 0.00 91 1015.3
20260905121003 78 0 0.0 0.0 0.00 0.03 0.00 92 1015.2
20260905120004 77 0 0.0 0.0 0.00 0.03 0.00 93 1014.9
20260905115024 77 0 0.0 0.0 0.00 0.03 0.00 93 1014.8
20260905114003 76 0 0.0 0.0 0.00 0.03 0.00 93 1014.7
20260905113003 76 0 0.0 0.0 0.00 0.03 0.00 93 1014.8
20260905112003 76 0 0.0 0.0 0.00 0.03 0.00 93 1014.6
20260905111003 76 0 0.0 0.0 0.00 0.03 0.00 93 1014.6
20260905110003 76 0 0.0 0.0 0.00 0.03 0.00 93 1014.5
20260905105003 77 0 0.0 0.0 0.00 0.03 0.00 93 1014.4
20260905104024 77 0 0.0 0.0 0.00 0.03 0.00 93 1014.2
20260905103003 77 0 0.0 0.0 0.00 0.03 0.00 93 1014.1
20260905102003 77 0 0.0 0.0 0.00 0.03 0.00 93 1014.2
20260905101003 77 0 0.0 0.0 0.00 0.03 0.00 93 1014.4
20260905100024 77 0 0.0 0.0 0.00 0.03 0.00 93 1014.1
20260905095025 77 0 0.0 0.0 0.00 0.03 0.00 93 1014.1
20260905094003 78 0 0.0 0.0 0.00 0.03 0.00 93 1014.0
20260905093024 78 0 0.0 0.0 0.00 0.03 0.00 93 1014.1
20260905092003 78 0 0.0 0.0 0.00 0.03 0.00 93 1014.1
20260905091003 78 0 0.0 0.0 0.00 0.03 0.00 93 1014.1
20260905090003 78 0 0.0 0.0 0.00 0.03 0.00 93 1014.2
20260905085003 78 0 0.0 0.0 0.00 0.03 0.00 93 1014.1
20260905084005 78 0 0.0 0.0 0.00 0.03 0.00 92 1014.3
20260905083026 78 0 0.0 0.0 0.00 0.03 0.00 92 1014.2
20260905082005 78 0 0.0 0.0 0.00 0.03 0.00 92 1014.2
20260905081004 78 0 0.0 0.0 0.00 0.03 0.00 92 1014.2
20260905080005 78 0 0.0 0.0 0.00 0.03 0.00 92 1014.1
20260905075004 78 0 0.0 0.0 0.00 0.03 0.00 92 1014.0
20260905074004 78 0 0.0 0.0 0.00 0.03 0.00 92 1013.9
20260905073026 78 0 0.0 0.0 0.00 0.03 0.00 92 1014.0
20260905072005 78 0 0.0 0.0 0.00 0.03 0.00 92 1014.1
20260905071026 78 0 0.0 0.0 0.00 0.03 0.00 92 1014.2
20260905070005 78 0 0.0 0.0 0.00 0.03 0.00 91 1014.3
20260905065004 78 0 0.0 0.0 0.00 0.03 0.00 92 1014.5
20260905064004 78 0 0.0 0.0 0.00 0.03 0.00 91 1014.6
20260905063004 78 0 0.0 0.0 0.00 0.03 0.00 91 1014.5
20260905062004 78 0 0.0 0.0 0.00 0.03 0.00 90 1014.7
20260905061004 78 0 0.0 0.0 0.00 0.03 0.00 90 1014.6
20260905060025 79 0 0.0 0.0 0.00 0.03 0.00 90 1014.8
20260905055004 79 0 0.0 0.0 0.00 0.03 0.00 89 1015.0
20260905054004 79 0 0.0 0.0 0.00 0.03 0.00 89 1015.0
20260905053004 80 0 0.0 0.0 0.00 0.03 0.00 88 1015.1
20260905052004 80 0 0.0 0.0 0.00 0.03 0.00 89 1015.3
20260905051004 80 0 0.0 0.0 0.00 0.03 0.00 89 1015.5
20260905050004 80 0 0.0 0.0 0.00 0.03 0.00 91 1015.3
20260905045004 80 0 0.0 0.0 0.00 0.03 0.00 90 1015.4
20260905044025 80 0 0.0 0.0 0.00 0.03 0.00 91 1015.5
20260905043004 79 0 0.0 0.0 0.00 0.03 0.00 91 1015.5
20260905042004 79 0 0.0 0.0 0.00 0.03 0.00 90 1015.6
20260905041004 80 0 0.0 0.0 0.00 0.03 0.00 90 1015.5
20260905040005 80 0 0.0 0.0 0.00 0.03 0.00 90 1015.5
20260905035026 80 0 0.0 0.0 0.00 0.03 0.03 90 1015.5
20260905034004 80 0 0.0 0.0 0.00 0.03 0.03 90 1015.7
20260905033004 80 0 0.0 0.0 0.00 0.03 0.03 89 1015.6
20260905032004 80 0 0.0 0.0 0.00 0.03 0.03 90 1015.7
20260905031004 80 0 0.0 0.0 0.00 0.03 0.03 90 1015.7
20260905030004 80 0 0.0 0.0 0.00 0.03 0.03 89 1015.8
20260905025004 80 0 0.0 0.0 0.00 0.03 0.03 89 1015.9
20260905024004 81 0 0.0 0.0 0.00 0.03 0.03 88 1015.9
20260905023005 81 0 0.0 0.0 0.00 0.03 0.03 88 1015.9
20260905022004 81 0 0.0 0.0 0.00 0.03 0.03 88 1015.8
20260905021025 81 0 0.0 0.0 0.00 0.03 0.03 87 1016.2
20260905020004 81 0 0.0 0.0 0.00 0.03 0.03 87 1016.0
20260905015004 81 0 0.0 0.0 0.00 0.03 0.03 86 1015.8
20260905014004 82 0 0.0 0.0 0.01 0.03 0.03 85 1015.6
20260905013004 82 0 0.0 0.0 0.01 0.03 0.03 85 1015.8
20260905012004 82 6 0.0 4.0 0.01 0.03 0.03 85 1015.9
20260905011025 82 22 1.0 8.0 0.01 0.03 0.03 86 1015.6
20260905010004 81 0 0.0 0.0 0.01 0.03 0.03 86 1015.9
20260905005005 82 0 0.0 0.0 0.01 0.03 0.03 85 1015.7
20260905004025 82 0 0.0 0.0 0.00 0.02 0.02 83 1015.8
20260905003004 82 0 0.0 0.0 0.00 0.02 0.02 82 1015.5
20260905002004 83 0 0.0 0.0 0.00 0.02 0.02 82 1015.3
20260905001004 83 0 0.0 0.0 0.00 0.02 0.02 81 1015.3
20260905000004 83 0 0.0 0.0 0.00 0.02 0.02 81 1015.2
20260904235004 84 200 0.0 1.0 0.00 0.02 0.02 80 1014.9
20260904234025 84 0 0.0 0.0 0.00 0.02 0.02 79 1014.5
20260904233004 85 0 0.0 0.0 0.00 0.02 0.02 79 1014.6
20260904232004 85 0 0.0 0.0 0.00 0.02 0.02 78 1014.7
20260904231004 85 0 0.0 0.0 0.00 0.02 0.02 78 1014.5
20260904230005 85 0 0.0 0.0 0.00 0.02 0.02 77 1014.6
20260904225004 85 0 0.0 0.0 0.00 0.02 0.02 77 1014.3
20260904224025 85 200 1.0 3.0 0.00 0.02 0.02 76 1014.2
20260904223004 86 197 1.0 4.0 0.00 0.02 0.02 75 1014.1
20260904222004 87 181 2.0 6.0 0.00 0.02 0.02 72 1014.1
20260904221004 89 172 3.0 7.0 0.00 0.02 0.02 72 1013.7
20260904220025 90 178 2.0 4.0 0.00 0.02 0.02 71 1013.6
20260904215005 92 174 1.0 4.0 0.00 0.03 0.02 69 1013.8
20260904214004 92 213 2.0 10.0 0.00 0.03 0.02 66 1014.1
20260904213004 92 199 2.0 8.0 0.00 0.03 0.02 67 1014.1
20260904212004 93 192 1.0 4.0 0.00 0.05 0.02 66 1013.8
20260904211004 93 196 1.0 5.0 0.00 0.06 0.02 65 1013.7
20260904210004 93 230 1.0 6.0 0.00 0.06 0.02 65 1013.7
20260904205025 92 219 1.0 7.0 0.00 0.07 0.02 69 1013.7
20260904204005 91 221 1.0 4.0 0.00 0.11 0.02 68 1013.9
20260904203005 91 231 2.0 7.0 0.00 0.14 0.02 69 1014.2
20260904202005 91 224 3.0 10.0 0.00 0.16 0.02 68 1014.1
20260904201025 90 224 4.0 10.0 0.00 0.18 0.02 70 1014.2
20260904200025 89 225 3.0 10.0 0.00 0.20 0.02 71 1014.1
20260904195004 88 228 4.0 10.0 0.00 0.25 0.02 73 1014.4
20260904194004 88 242 4.0 9.0 0.00 0.39 0.02 72 1014.7
20260904193026 88 234 5.0 10.0 0.00 0.45 0.02 72 1015.0
20260904192004 88 231 5.0 11.0 0.00 0.49 0.02 74 1015.2
20260904191004 88 258 6.0 15.0 0.00 0.49 0.02 72 1015.2
20260904190004 88 204 2.0 10.0 0.00 0.49 0.02 73 1015.2
20260904185004 90 0 0.0 0.0 0.00 0.49 0.02 71 1015.1
20260904184004 91 0 0.0 0.0 0.00 0.49 0.02 72 1014.9
20260904183004 91 55 0.0 1.0 0.00 0.49 0.02 72 1015.1
20260904182025 92 0 0.0 0.0 0.00 0.49 0.02 73 1015.2
20260904181004 91 0 0.0 0.0 0.02 0.49 0.02 75 1015.4
20260904180004 90 0 0.0 0.0 0.02 0.49 0.02 77 1015.5
20260904175005 90 0 0.0 0.0 0.02 0.49 0.02 77 1015.6
20260904174004 89 0 0.0 0.0 0.02 0.49 0.02 80 1015.9
20260904173025 89 0 0.0 0.0 0.02 0.49 0.02 80 1015.8
20260904172004 89 0 0.0 0.0 0.02 0.49 0.02 78 1015.9
20260904171025 90 0 0.0 0.0 0.00 0.47 0.00 73 1016.1
20260904170004 91 0 0.0 0.0 0.00 0.47 0.00 71 1016.1
20260904165004 91 0 0.0 0.0 0.00 0.47 0.00 72 1016.3
20260904164004 92 0 0.0 0.0 0.00 0.47 0.00 70 1016.3
20260904163004 92 228 0.0 1.0 0.00 0.47 0.00 72 1016.5
20260904162004 92 0 0.0 0.0 0.00 0.47 0.00 70 1016.5
20260904161004 92 62 0.0 1.0 0.00 0.47 0.00 72 1016.6
20260904160004 92 205 0.0 2.0 0.00 0.47 0.00 71 1016.8
20260904155004 91 195 2.0 5.0 0.00 0.47 0.00 73 1016.9
20260904154004 90 207 2.0 6.0 0.00 0.47 0.00 73 1017.0
20260904153004 89 210 1.0 5.0 0.00 0.47 0.00 72 1017.0
20260904152004 90 235 0.0 3.0 0.00 0.47 0.00 73 1016.9
20260904151025 90 192 0.0 3.0 0.00 0.47 0.00 76 1016.8
20260904150004 89 181 1.0 6.0 0.00 0.47 0.00 74 1016.7
20260904145004 89 187 1.0 6.0 0.00 0.47 0.00 77 1016.6